Location: Aldenham
(51.6667°N, 0.3500°W)
Time: 19:50:39
(UTC+00:00)

Vanguard 3 - All Passes

Search period start: 15 February 2026 00:00
Search period end: 25 February 2026 00:00
Orbit: 507 x 3205 km, 33.3° (Epoch: 15 February)

Date Brightness Start Highest point End Pass type
(mag) Time Alt. Az. Time Alt. Az. Time Alt. Az.
15 Feb - 17:49:35 10° S 17:50:05 10° S 17:50:35 10° S visible
16 Feb - 16:27:25 10° S 16:28:57 11° S 16:30:21 10° SSE daylight
16 Feb - 18:37:54 10° SSW 18:39:00 11° S 18:40:00 10° S visible
17 Feb - 17:14:39 10° SSW 17:18:00 13° S 17:20:46 10° SSE daylight
18 Feb - 15:52:20 10° SSW 15:56:43 14° S 16:00:15 10° SE daylight
18 Feb - 18:03:42 10° SW 18:06:55 13° S 18:09:35 10° SSE visible
19 Feb - 14:31:02 10° S 14:35:05 12° SSE 14:38:32 10° SE daylight
19 Feb - 16:40:32 10° SW 16:45:49 17° S 16:49:50 10° SE daylight
19 Feb - 18:54:04 10° SW 18:55:40 11° SSW 18:57:07 10° S visible
20 Feb - 15:17:48 10° SSW 15:24:21 17° S 15:29:17 10° SE daylight
20 Feb - 17:29:49 10° SW 17:34:47 17° S 17:38:33 10° SSE daylight
21 Feb - 13:55:51 10° SSW 14:02:31 16° SSE 14:07:47 10° SE daylight
21 Feb - 16:06:22 10° SW 16:13:32 20° S 16:18:38 10° SE daylight
21 Feb - 18:19:57 10° SW 18:23:33 14° SSW 18:26:28 10° S visible
22 Feb - 12:36:06 10° S 12:40:24 12° SSE 12:44:13 10° SE daylight
22 Feb - 14:43:16 10° SSW 14:51:51 21° S 14:58:00 10° SE daylight
22 Feb - 16:55:50 10° SW 17:02:33 20° SSW 17:07:20 10° SE daylight
23 Feb - 13:20:56 10° SSW 13:29:46 19° SSE 13:36:29 10° ESE daylight
23 Feb - 15:32:04 10° SW 15:41:05 24° S 15:47:15 10° SE daylight
23 Feb - 17:46:00 10° WSW 17:51:20 17° SSW 17:55:21 10° SSE daylight
24 Feb - 12:00:25 10° S 12:07:27 14° SSE 12:13:22 10° SE daylight
24 Feb - 14:08:40 10° SW 14:19:09 24° S 14:26:29 10° ESE daylight
24 Feb - 16:21:41 10° WSW 16:30:10 24° S 16:35:57 10° SE daylight
24 Feb - 18:37:30 10° SW 18:39:51 11° SSW 18:41:54 10° SSW visible
